When you browse on this site, cookies collect data to enhance your experience and personalize the content and advertising you see.
Visit our Privacy Policy to learn more. By continuing to use the site, you agree to this use of cookies and data.
  • în România
  • Lista ţărilor
  • Pe 7 zile
  • Temperatura apei
  • Hartă satelitară
  • Meteo pe hartă
  • Widget-uri
  • user-avatar
    Intrare

    Meteo pe oră la Kaczowice

    Astăzi, 26 Mai, Duminică

    Timp Temperatura Precipitaţii Vânt Presiune Umiditate
    00:00 +13°C° 0 mm 1 m/s 737 mmHg 89%
    01:00 +12°C° 0 mm 1 m/s 737 mmHg 90%
    02:00 +12°C° 0 mm 1 m/s 737 mmHg 90%
    03:00 +12°C° 0 mm 1 m/s 737 mmHg 91%
    04:00 +11°C° 0 mm 1 m/s 737 mmHg 91%
    05:00 +13°C° 0 mm 1 m/s 738 mmHg 88%
    06:00 +15°C° 0 mm 2 m/s 738 mmHg 84%
    07:00 +16°C° 0 mm 2 m/s 738 mmHg 81%
    08:00 +18°C° 0.4 mm 2 m/s 738 mmHg 77%
    09:00 +19°C° 0.4 mm 3 m/s 738 mmHg 74%
    10:00 +20°C° 0.4 mm 3 m/s 738 mmHg 70%
    11:00 +21°C° 0.2 mm 3 m/s 737 mmHg 67%
    12:00 +21°C° 0.2 mm 3 m/s 737 mmHg 63%
    13:00 +22°C° 0.2 mm 3 m/s 737 mmHg 59%
    14:00 +22°C° 0.1 mm 3 m/s 737 mmHg 59%
    15:00 +22°C° 0.1 mm 3 m/s 737 mmHg 58%
    16:00 +24°C° 0.1 mm 2 m/s 737 mmHg 58%
    17:00 +21°C° 0.2 mm 2 m/s 736 mmHg 64%
    18:00 +20°C° 0.2 mm 1 m/s 736 mmHg 70%
    19:00 +19°C° 0.2 mm 1 m/s 736 mmHg 77%
    20:00 +18°C° 0 mm 1 m/s 736 mmHg 80%
    21:00 +16°C° 0 mm 2 m/s 736 mmHg 84%
    22:00 +15°C° 0 mm 2 m/s 737 mmHg 88%
    23:00 +15°C° 0 mm 2 m/s 736 mmHg 89%

    Mâine, 27 Mai, Luni

    Timp Temperatura Precipitaţii Vânt Presiune Umiditate
    00:00 +14°C° 0 mm 2 m/s 736 mmHg 90%
    01:00 +14°C° 0 mm 2 m/s 736 mmHg 91%
    02:00 +14°C° 0 mm 2 m/s 736 mmHg 91%
    03:00 +13°C° 0 mm 2 m/s 736 mmHg 91%
    04:00 +13°C° 0 mm 2 m/s 735 mmHg 91%
    05:00 +15°C° 0 mm 2 m/s 736 mmHg 87%
    06:00 +17°C° 0 mm 2 m/s 736 mmHg 84%
    07:00 +18°C° 0 mm 2 m/s 736 mmHg 80%
    08:00 +19°C° 0.1 mm 3 m/s 736 mmHg 76%
    09:00 +21°C° 0.1 mm 3 m/s 736 mmHg 73%
    10:00 +22°C° 0.1 mm 4 m/s 736 mmHg 69%
    11:00 +24°C° 0.2 mm 3 m/s 736 mmHg 65%
    12:00 +24°C° 0.2 mm 3 m/s 735 mmHg 62%
    13:00 +25°C° 0.2 mm 3 m/s 735 mmHg 59%
    14:00 +25°C° 0.4 mm 3 m/s 735 mmHg 63%
    15:00 +24°C° 0.4 mm 3 m/s 734 mmHg 67%
    16:00 +24°C° 0.4 mm 3 m/s 734 mmHg 70%
    17:00 +23°C° 0.1 mm 2 m/s 734 mmHg 73%
    18:00 +22°C° 0.1 mm 1 m/s 734 mmHg 76%
    19:00 +20°C° 0.1 mm 1 m/s 734 mmHg 79%
    20:00 +20°C° 0.1 mm 1 m/s 734 mmHg 82%
    21:00 +19°C° 0.1 mm 1 m/s 734 mmHg 84%
    22:00 +19°C° 0.1 mm 1 m/s 733 mmHg 87%
    23:00 +18°C° 0.1 mm 1 m/s 733 mmHg 89%

    Poimâine, 28 Mai, Marţi

    Timp Temperatura Precipitaţii Vânt Presiune Umiditate
    00:00 +18°C° 0.1 mm 1 m/s 733 mmHg 91%
    01:00 +17°C° 0.1 mm 2 m/s 732 mmHg 94%
    02:00 +16°C° 0.1 mm 1 m/s 732 mmHg 94%
    03:00 +16°C° 0.1 mm 1 m/s 732 mmHg 94%
    04:00 +16°C° 0.1 mm 1 m/s 731 mmHg 94%
    05:00 +18°C° 0 mm 1 m/s 731 mmHg 91%
    06:00 +18°C° 0 mm 2 m/s 731 mmHg 87%
    07:00 +20°C° 0 mm 2 m/s 731 mmHg 83%
    08:00 +21°C° 0.1 mm 3 m/s 731 mmHg 77%
    09:00 +22°C° 0.1 mm 3 m/s 731 mmHg 71%
    10:00 +25°C° 0.1 mm 3 m/s 731 mmHg 65%
    11:00 +25°C° 0.1 mm 3 m/s 730 mmHg 64%
    12:00 +25°C° 0.1 mm 3 m/s 730 mmHg 64%
    13:00 +25°C° 0.1 mm 2 m/s 730 mmHg 64%
    14:00 +23°C° 2.8 mm 2 m/s 729 mmHg 71%
    15:00 +21°C° 2.8 mm 2 m/s 729 mmHg 79%
    16:00 +19°C° 2.8 mm 2 m/s 729 mmHg 87%
    17:00 +19°C° 0.2 mm 2 m/s 729 mmHg 87%
    18:00 +20°C° 0.2 mm 1 m/s 729 mmHg 87%
    19:00 +19°C° 0.2 mm 1 m/s 729 mmHg 87%
    20:00 +19°C° 0.4 mm 1 m/s 729 mmHg 89%
    21:00 +17°C° 0.4 mm 2 m/s 729 mmHg 90%
    22:00 +16°C° 0.4 mm 2 m/s 729 mmHg 92%
    23:00 +16°C° 0.1 mm 3 m/s 730 mmHg 94%

    29 Mai, Miercuri

    Timp Temperatura Precipitaţii Vânt Presiune Umiditate
    00:00 +14°C° 0.1 mm 3 m/s 730 mmHg 95%
    01:00 +14°C° 0.1 mm 3 m/s 730 mmHg 97%
    02:00 +13°C° 0.1 mm 3 m/s 730 mmHg 96%
    03:00 +13°C° 0.1 mm 3 m/s 731 mmHg 96%
    04:00 +13°C° 0.1 mm 4 m/s 731 mmHg 95%
    05:00 +13°C° 0.2 mm 4 m/s 731 mmHg 94%
    06:00 +13°C° 0.2 mm 3 m/s 732 mmHg 93%
    07:00 +12°C° 0.2 mm 3 m/s 732 mmHg 92%
    08:00 +13°C° 0.1 mm 3 m/s 733 mmHg 90%
    09:00 +14°C° 0.1 mm 3 m/s 733 mmHg 88%
    10:00 +16°C° 0.1 mm 3 m/s 733 mmHg 86%
    11:00 +16°C° 0.2 mm 3 m/s 734 mmHg 86%
    12:00 +16°C° 0.2 mm 3 m/s 734 mmHg 86%
    13:00 +15°C° 0.2 mm 4 m/s 734 mmHg 86%
    14:00 +14°C° 1.1 mm 4 m/s 734 mmHg 88%
    15:00 +14°C° 1.1 mm 4 m/s 734 mmHg 91%
    16:00 +13°C° 1.1 mm 4 m/s 735 mmHg 93%
    17:00 +13°C° 0.4 mm 4 m/s 735 mmHg 93%
    18:00 +13°C° 0.4 mm 3 m/s 735 mmHg 94%
    19:00 +12°C° 0.4 mm 3 m/s 735 mmHg 95%
    20:00 +12°C° 0.3 mm 3 m/s 735 mmHg 95%
    21:00 +12°C° 0.3 mm 3 m/s 736 mmHg 95%
    22:00 +12°C° 0.3 mm 3 m/s 736 mmHg 96%
    23:00 +11°C° 0.2 mm 4 m/s 736 mmHg 95%

    30 Mai, Joi

    Timp Temperatura Precipitaţii Vânt Presiune Umiditate
    00:00 +11°C° 0.2 mm 4 m/s 737 mmHg 95%
    01:00 +9°C° 0.2 mm 5 m/s 737 mmHg 95%
    02:00 +9°C° 0.2 mm 5 m/s 737 mmHg 94%
    03:00 +8°C° 0.2 mm 5 m/s 737 mmHg 93%
    04:00 +7°C° 0.2 mm 5 m/s 738 mmHg 92%
    05:00 +7°C° 0.4 mm 4 m/s 738 mmHg 92%
    06:00 +7°C° 0.4 mm 4 m/s 739 mmHg 92%
    07:00 +8°C° 0.4 mm 3 m/s 739 mmHg 92%
    08:00 +8°C° 0.3 mm 3 m/s 740 mmHg 92%
    09:00 +8°C° 0.3 mm 3 m/s 740 mmHg 91%
    10:00 +8°C° 0.3 mm 3 m/s 740 mmHg 91%
    11:00 +8°C° 0.2 mm 3 m/s 741 mmHg 91%
    12:00 +9°C° 0.2 mm 3 m/s 741 mmHg 91%
    13:00 +8°C° 0.2 mm 4 m/s 741 mmHg 90%
    14:00 +10°C° 0.2 mm 3 m/s 741 mmHg 89%
    15:00 +11°C° 0.2 mm 3 m/s 742 mmHg 89%
    16:00 +12°C° 0.2 mm 2 m/s 742 mmHg 88%
    17:00 +12°C° 0.1 mm 2 m/s 742 mmHg 89%
    18:00 +12°C° 0.1 mm 2 m/s 742 mmHg 90%
    19:00 +12°C° 0.1 mm 1 m/s 742 mmHg 90%
    20:00 +10°C° 0 mm 2 m/s 743 mmHg 91%
    21:00 +9°C° 0 mm 2 m/s 743 mmHg 92%
    22:00 +8°C° 0 mm 2 m/s 743 mmHg 93%
    23:00 +8°C° 0 mm 2 m/s 743 mmHg 93%

    31 Mai, Vineri

    Timp Temperatura Precipitaţii Vânt Presiune Umiditate
    00:00 +7°C° 0 mm 2 m/s 744 mmHg 93%
    01:00 +7°C° 0 mm 2 m/s 744 mmHg 93%
    02:00 +7°C° 0 mm 2 m/s 744 mmHg 93%
    03:00 +6°C° 0 mm 2 m/s 744 mmHg 93%
    04:00 +6°C° 0 mm 2 m/s 744 mmHg 93%
    05:00 +8°C° 0 mm 2 m/s 745 mmHg 88%
    06:00 +10°C° 0 mm 2 m/s 745 mmHg 84%
    07:00 +13°C° 0 mm 2 m/s 745 mmHg 80%
    08:00 +14°C° 0 mm 2 m/s 745 mmHg 73%
    09:00 +15°C° 0 mm 2 m/s 745 mmHg 65%
    10:00 +17°C° 0 mm 2 m/s 745 mmHg 57%
    11:00 +18°C° 0 mm 1 m/s 745 mmHg 56%
    12:00 +19°C° 0 mm 1 m/s 745 mmHg 54%
    13:00 +20°C° 0 mm 1 m/s 745 mmHg 53%
    14:00 +20°C° 0.1 mm 1 m/s 745 mmHg 58%
    15:00 +18°C° 0.1 mm 2 m/s 745 mmHg 63%
    16:00 +18°C° 0.1 mm 2 m/s 745 mmHg 68%
    17:00 +17°C° 0 mm 2 m/s 745 mmHg 72%
    18:00 +16°C° 0 mm 1 m/s 745 mmHg 75%
    19:00 +15°C° 0 mm 1 m/s 746 mmHg 78%
    20:00 +13°C° 0 mm 1 m/s 746 mmHg 81%
    21:00 +12°C° 0 mm 1 m/s 746 mmHg 83%
    22:00 +11°C° 0 mm 1 m/s 746 mmHg 86%
    23:00 +11°C° 0 mm 1 m/s 746 mmHg 87%
    Arată mai mult